Theta_e
327 328 330 330 331 328 327 328 329 329 329 329 330 329 330 329 329 328 329 330 330 329 327 327 327 328 329 329 328 328 328 329 328 328 329 328 328 328 328 327 325 324 322
326 328 329 330 329 327 326 329 329 329 330 329 330 330 330 329 329 329 329 328 328 326 326 328 327 328 328 328 328 329 329 328 328 328 329 328 328 328 328 327 325 324 320
325 328 330 329 329 328 326 327 330 330 330 329 329 329 329 329 328 328 327 327 327 327 326 328 328 327 328 328 328 328 328 327 327 328 329 329 329 328 328 326 326 325 325
324 328 329 329 329 329 327 328 329 330 330 329 329 329 329 329 327 326 327 327 328 325 325 328 327 328 328 327 328 328 328 328 328 328 328 329 329 329 328 326 325 325 323
324 328 328 328 329 330 328 327 329 330 330 330 330 330 330 327 328 328 326 326 327 327 326 327 328 328 328 328 328 327 327 327 327 327 327 328 326 326 325 322 323 322 324
323 328 327 326 328 330 327 328 328 328 329 329 328 330 330 330 328 327 327 325 327 327 327 327 328 328 327 327 327 327 327 327 327 326 325 326 325 322 321 321 318 322 323
323 327 327 329 329 330 328 327 327 326 324 329 328 330 330 330 329 328 326 326 327 327 327 328 327 326 327 326 327 327 327 328 326 325 324 325 322 319 320 323 323 324 324
323 325 325 327 326 326 328 329 328 323 324 328 329 330 329 330 329 328 329 328 328 328 328 328 328 327 327 327 327 328 326 327 326 324 321 320 321 321 322 323 323 323 323
323 323 323 325 326 325 325 327 328 322 323 324 329 331 330 329 328 327 328 328 328 328 327 327 328 328 327 327 327 323 325 327 326 326 325 324 325 325 326 326 326 323 317
322 323 322 324 327 326 324 326 322 320 321 323 323 327 329 329 330 328 328 328 329 328 327 327 327 326 325 326 323 323 322 321 320 319 319 316 312 311 311 312 311 310 310
321 322 322 322 327 326 324 324 325 322 320 321 323 323 326 327 326 325 326 327 327 327 327 323 322 322 322 321 321 321 320 318 314 313 315 316 317 316 315 314 313 313 313
320 321 322 321 324 325 324 323 323 325 322 319 318 318 321 322 325 325 325 325 322 320 322 322 319 318 319 320 320 319 319 315 317 316 316 317 317 317 314 313 312 308 306
319 318 320 321 322 323 325 323 323 323 324 325 322 320 318 314 317 318 322 324 323 322 322 323 323 321 319 320 321 320 320 317 314 316 317 315 314 313 311 307 305 305 303
318 318 318 320 322 322 325 324 324 326 326 325 325 322 321 320 315 311 313 316 321 319 318 318 319 318 317 319 318 316 314 312 314 317 315 313 311 309 306 305 306 303 303
319 319 317 318 322 324 325 326 325 325 324 327 326 325 323 322 320 317 309 312 317 316 315 314 308 311 314 314 309 305 308 314 317 315 313 310 306 304 305 305 303 302 302
319 319 318 317 322 324 325 325 326 324 323 323 326 325 323 322 321 320 313 308 312 314 312 309 305 305 310 309 305 310 308 313 316 314 310 305 304 304 304 302 301 301 300
321 320 318 318 321 323 324 324 323 324 324 322 322 324 322 322 321 321 319 307 311 314 312 308 306 304 304 303 308 312 312 314 314 309 306 305 304 302 302 301 301 299 298
322 322 319 318 320 322 323 323 323 322 323 324 323 322 323 322 321 320 320 309 312 312 311 310 309 309 307 305 307 312 314 311 308 307 305 304 302 302 301 300 299 299 298
323 322 321 318 320 321 322 322 323 322 322 322 322 323 320 319 318 320 320 317 308 314 316 315 315 315 314 314 313 314 314 310 308 305 304 302 302 301 300 299 299 298 298
324 323 322 319 319 320 321 321 322 322 321 320 321 322 321 317 317 316 318 316 308 308 312 315 316 316 316 318 317 314 311 308 306 304 302 302 301 300 299 299 298 297 297
324 323 323 322 319 320 321 320 321 321 320 320 320 321 321 319 317 317 315 316 313 308 307 310 312 313 313 315 315 311 309 306 304 302 302 301 300 299 298 297 297 296 295
325 324 322 322 322 320 320 321 320 320 320 320 320 320 320 319 317 316 316 316 316 314 310 307 309 312 314 316 314 310 307 304 302 302 301 300 299 298 297 297 296 294 294
326 325 323 323 321 322 322 320 320 320 319 319 320 319 319 317 315 315 315 315 315 314 313 311 311 313 314 316 312 309 306 302 301 301 299 298 299 298 298 296 294 293 292
327 326 324 324 323 322 321 322 321 321 320 319 319 318 319 319 316 315 314 313 314 314 314 313 313 313 312 312 307 303 301 301 301 299 298 298 299 298 297 294 292 291 289
328 327 325 324 324 323 323 322 322 322 322 321 320 319 318 319 317 315 314 312 312 313 313 313 312 311 310 308 306 302 301 301 300 298 298 298 297 297 295 292 290 289 288
328 329 328 326 324 323 323 323 324 324 323 323 323 322 321 318 315 313 312 311 311 312 311 310 307 305 304 304 301 301 300 299 298 298 298 297 296 294 292 290 289 288 288
Wind_Speed
8 7 6 3 5 6 6 7 5 5 5 9 15 16 17 19 19 18 19 20 21 21 21 23 22 24 26 28 26 24 26 22 14 16 19 20 19 19 18 14 13 12 11
12 9 9 7 8 8 7 7 8 9 7 11 15 16 20 22 21 23 22 20 19 21 21 24 25 26 27 27 28 25 22 24 22 18 17 16 17 17 13 14 12 8 10
14 12 13 6 9 8 8 9 9 12 13 14 14 19 21 22 21 21 20 18 18 18 22 24 25 26 26 27 27 26 27 27 22 19 12 17 18 20 15 13 12 10 10
17 15 13 7 9 8 8 10 11 10 14 16 17 20 18 20 20 21 20 19 19 18 21 24 25 26 30 30 30 27 26 24 21 17 14 14 12 14 12 15 13 11 10
20 18 13 11 11 9 10 12 13 12 14 16 19 17 16 17 20 22 21 17 15 16 18 23 26 29 29 32 30 26 23 20 17 16 10 9 13 11 13 10 12 10 10
23 20 16 14 12 11 12 13 15 12 12 17 17 13 11 15 18 17 20 18 15 19 20 22 23 24 23 23 24 18 15 21 20 18 14 16 15 14 12 10 12 8 3
26 22 19 15 13 16 15 12 13 12 13 15 18 18 15 17 19 20 20 19 19 20 22 25 25 26 26 25 21 13 7 15 17 17 17 18 16 16 13 14 13 11 11
29 25 21 16 20 18 15 14 12 13 15 15 17 17 21 20 19 20 19 20 21 21 24 26 29 31 26 24 18 11 11 16 19 15 12 12 10 8 12 12 12 9 3
31 29 25 19 23 18 17 16 19 15 17 17 18 19 20 21 21 19 21 19 20 21 24 23 25 27 23 18 15 14 14 14 11 7 12 6 5 6 5 6 6 5 2
32 32 28 24 24 21 20 22 21 18 19 18 18 18 17 18 18 18 17 18 18 19 20 18 17 19 19 18 19 19 19 17 15 15 15 11 8 6 4 5 5 7 5
37 34 31 29 27 24 22 21 22 20 19 18 18 17 18 18 17 17 19 21 22 20 20 19 17 17 18 19 19 16 14 13 11 12 12 10 10 10 8 6 7 6 6
36 35 35 33 31 27 27 23 22 21 22 19 18 17 17 16 17 18 18 17 19 22 21 20 18 17 16 15 14 13 14 15 13 10 11 12 14 15 15 12 10 13 14
36 35 37 36 34 32 31 28 25 23 22 20 20 19 18 19 17 16 14 17 18 18 19 19 18 17 15 14 15 14 14 16 16 18 22 22 20 18 16 16 18 21 18
34 34 37 37 34 35 35 34 31 28 25 22 21 24 21 19 19 20 19 16 20 18 17 18 18 18 17 17 18 16 16 15 18 26 26 22 19 16 15 17 18 18 19
35 34 34 35 37 35 35 37 36 33 31 28 27 28 26 24 23 21 23 21 19 19 19 22 22 23 21 19 16 14 15 18 26 26 23 21 19 19 19 16 17 16 16
30 30 31 30 32 31 30 29 34 34 32 31 26 26 28 23 19 21 22 23 20 21 25 27 27 27 27 24 20 17 18 23 27 26 25 25 25 23 23 19 18 17 17
32 30 31 31 30 29 28 27 25 30 29 28 28 25 27 26 23 23 23 26 24 24 30 31 32 31 30 26 23 22 27 31 30 29 27 25 24 21 20 20 18 17 17
34 37 34 32 31 30 30 29 27 26 26 30 30 31 27 27 27 27 28 30 29 29 31 33 32 28 25 24 24 28 32 32 31 27 27 26 25 25 25 22 16 16 14
35 35 34 33 33 33 32 29 29 28 26 29 28 30 33 26 25 30 33 37 36 35 36 34 33 29 26 26 28 31 37 37 33 31 28 30 27 25 21 17 16 14 11
34 35 35 31 30 31 30 28 27 27 28 29 32 33 31 31 29 24 35 39 38 39 42 40 37 31 28 29 32 36 41 39 36 33 33 29 25 22 21 21 15 13 11
31 32 36 31 30 32 31 29 29 28 27 28 34 37 37 36 34 33 34 44 44 42 40 41 40 36 32 33 36 41 45 42 38 36 31 28 28 26 23 16 14 12 10
30 31 37 32 31 29 30 31 30 29 29 28 32 36 39 40 37 40 39 42 48 46 43 43 38 37 37 37 41 48 47 44 41 37 34 35 28 23 19 17 13 11 9
30 29 32 28 29 31 34 31 30 30 28 33 34 33 35 40 36 41 45 44 43 44 42 38 37 36 35 36 42 48 50 48 44 39 39 30 24 23 22 17 12 12 10
31 31 31 30 27 31 30 30 35 36 34 34 36 36 38 39 41 44 43 42 42 42 45 43 41 41 41 37 39 35 32 41 40 38 33 29 27 23 20 16 14 12 10
31 29 28 30 29 31 28 33 36 35 36 37 37 37 39 42 42 40 41 38 39 40 39 39 39 41 43 45 45 40 34 31 32 28 25 25 23 21 18 16 15 13 10
27 32 32 31 29 29 28 31 36 37 36 36 34 32 34 37 37 35 33 34 36 37 36 35 36 38 41 43 40 42 39 29 26 23 25 22 24 22 19 17 15 13 12
Wind_Direction
179 171 166 127 91 88 82 110 106 111 151 155 162 157 158 158 158 159 153 149 143 131 141 149 147 153 147 143 148 138 130 128 120 109 139 148 154 162 180 192 197 206 207
156 151 143 136 116 95 96 104 110 111 117 128 144 148 150 151 149 150 152 147 136 137 144 145 144 149 145 140 139 131 140 141 129 125 135 156 171 184 192 192 193 202 213
161 150 147 135 123 102 94 123 118 124 120 134 145 150 152 154 151 151 155 150 141 140 150 149 146 152 138 145 142 138 142 142 140 141 135 157 172 185 187 198 201 219 243
163 153 147 156 135 126 107 117 128 123 124 131 142 143 147 151 152 150 143 141 139 144 154 153 149 154 154 147 145 147 148 144 144 149 159 174 178 183 193 198 207 232 247
163 158 153 158 138 136 122 120 124 120 116 132 139 141 150 160 162 158 155 151 148 148 153 156 160 159 160 157 146 137 144 150 163 179 181 172 183 192 202 202 214 242 261
167 162 159 163 155 150 141 130 121 118 121 144 143 140 142 162 163 163 161 158 160 155 147 159 155 149 152 152 154 149 153 164 177 181 178 186 196 201 203 216 216 237 317
168 165 167 173 170 166 154 144 132 128 131 140 150 146 145 150 158 155 160 160 156 157 154 153 150 150 150 154 160 171 190 195 186 184 184 188 196 207 212 214 221 236 251
171 170 172 172 165 160 162 164 157 140 133 119 135 145 143 144 149 152 160 163 168 167 161 157 164 167 175 175 184 216 224 196 202 201 197 191 212 221 230 245 248 254 250
173 174 177 175 170 165 150 156 163 148 143 131 130 139 149 151 159 148 159 157 156 163 167 164 168 178 188 197 199 162 144 160 177 199 215 186 151 158 158 178 148 131 139
176 179 178 178 178 175 161 154 158 154 149 149 142 143 151 156 169 176 170 163 161 165 173 179 183 187 190 184 174 159 145 146 147 138 142 150 146 143 114 90 117 122 117
182 183 181 184 184 184 180 164 162 165 158 158 158 152 153 159 164 168 162 161 160 166 170 171 172 168 167 173 185 175 168 162 148 145 137 128 117 113 117 130 121 104 118
184 186 187 187 187 186 187 184 176 166 173 173 171 173 172 165 164 167 172 172 170 168 171 175 177 177 175 175 175 169 158 152 149 143 140 128 134 137 123 116 101 102 87
185 186 191 192 191 189 188 187 185 186 180 181 188 183 184 192 189 185 185 192 184 183 182 184 182 182 179 175 169 158 154 159 158 145 134 129 128 129 128 121 115 112 90
186 187 191 192 191 193 191 191 191 192 195 195 194 196 193 193 199 198 197 195 199 200 197 192 189 183 178 167 160 160 166 175 171 147 139 138 136 135 131 135 130 118 102
189 188 186 188 191 190 192 192 195 200 201 202 205 204 199 201 206 207 203 202 201 201 191 183 180 180 179 176 167 166 168 166 156 150 147 143 142 146 141 135 122 119 108
182 184 184 184 184 188 188 194 204 209 208 213 215 213 212 220 219 214 213 207 203 200 187 184 187 188 190 187 177 171 175 173 164 161 156 155 153 146 136 134 131 114 104
186 185 183 183 183 182 187 192 197 212 214 216 219 219 221 225 226 222 214 208 206 201 195 193 195 195 198 192 183 182 172 172 170 166 161 156 149 141 140 130 117 110 99
189 190 184 185 185 186 189 193 195 197 204 213 219 218 222 226 230 227 218 206 197 202 202 202 203 204 203 198 195 189 179 173 170 165 161 160 157 152 142 128 125 117 110
190 187 187 185 188 190 190 191 194 198 203 212 217 220 224 227 228 229 221 207 204 208 213 214 213 212 207 206 201 193 184 177 172 168 167 162 159 147 132 120 122 118 118
194 193 187 184 186 187 189 190 193 197 204 207 214 220 218 220 227 224 212 207 209 212 215 219 219 215 211 209 203 195 184 176 174 171 167 162 154 147 136 135 138 130 109
193 194 187 183 186 190 192 193 197 199 203 207 215 221 220 218 220 222 218 211 215 217 218 220 221 219 217 211 199 190 180 177 176 173 167 161 155 147 139 146 135 122 107
190 191 187 188 191 193 196 198 199 201 205 209 218 225 226 223 223 223 223 222 219 223 223 225 220 216 210 205 200 186 180 177 175 172 164 158 160 144 146 150 136 124 118
188 189 192 195 194 196 198 198 200 204 205 212 217 221 222 224 221 229 229 227 223 224 224 221 215 206 207 203 200 189 182 178 175 168 160 156 154 149 155 149 141 131 122
191 191 192 195 194 199 198 199 206 209 210 212 217 218 226 229 226 229 231 230 227 222 222 216 211 207 199 195 190 184 179 174 169 163 155 154 160 161 153 148 144 132 123
200 191 190 192 198 201 202 207 212 214 216 219 221 223 228 232 230 229 230 226 219 212 205 203 201 199 193 188 182 180 174 168 158 158 156 162 160 161 156 152 146 138 128
203 205 205 200 201 206 206 208 213 216 217 222 224 226 229 228 223 219 214 205 199 197 194 190 185 178 178 176 170 159 155 161 159 162 172 166 165 161 159 152 147 143 133